TimeMST,TemperatureF,Dew PointF,Humidity,Sea Level PressureIn,VisibilityMPH,Wind Direction,Wind SpeedMPH,Gust SpeedMPH,PrecipitationIn,Events,Conditions,WindDirDegrees,DateUTC
12:15 AM,39.2,26.6,61,30.18,10.0,Calm,Calm,-,N/A,,Clear,0,2012-11-22 07:15:00
12:35 AM,39.2,26.6,61,30.20,10.0,ENE,12.7,-,N/A,,Clear,60,2012-11-22 07:35:00
12:55 AM,39.2,26.6,61,30.21,10.0,NE,6.9,-,N/A,,Clear,50,2012-11-22 07:55:00
1:15 AM,39.2,26.6,61,30.23,10.0,Calm,Calm,-,N/A,,Partly Cloudy,0,2012-11-22 08:15:00
1:35 AM,37.4,26.6,65,30.23,10.0,East,3.5,-,N/A,,Partly Cloudy,80,2012-11-22 08:35:00
1:55 AM,35.6,26.6,70,30.24,10.0,Calm,Calm,-,N/A,,Clear,0,2012-11-22 08:55:00
2:15 AM,35.6,24.8,65,30.26,10.0,SSE,6.9,-,N/A,,Clear,160,2012-11-22 09:15:00
2:35 AM,33.8,24.8,70,30.27,10.0,East,3.5,-,N/A,,Clear,80,2012-11-22 09:35:00
2:55 AM,35.6,26.6,70,30.28,10.0,NE,3.5,-,N/A,,Clear,50,2012-11-22 09:55:00
3:35 AM,33.8,24.8,70,30.28,10.0,WNW,3.5,-,N/A,,Clear,290,2012-11-22 10:35:00
3:55 AM,33.8,24.8,70,30.28,10.0,Calm,Calm,-,N/A,,Clear,0,2012-11-22 10:55:00
4:15 AM,33.8,23.0,65,30.29,10.0,West,3.5,-,N/A,,Clear,280,2012-11-22 11:15:00
4:35 AM,33.8,21.2,60,30.29,10.0,North,5.8,-,N/A,,Clear,350,2012-11-22 11:35:00
4:55 AM,37.4,19.4,48,30.30,10.0,NNE,11.5,-,N/A,,Clear,20,2012-11-22 11:55:00
5:15 AM,37.4,19.4,48,30.31,10.0,North,11.5,-,N/A,,Clear,10,2012-11-22 12:15:00
5:35 AM,37.4,19.4,48,30.32,10.0,North,12.7,-,N/A,,Clear,10,2012-11-22 12:35:00
5:55 AM,37.4,19.4,48,30.33,10.0,North,11.5,-,N/A,,Clear,10,2012-11-22 12:55:00
6:15 AM,37.4,17.6,45,30.34,10.0,North,8.1,-,N/A,,Clear,10,2012-11-22 13:15:00
6:35 AM,35.6,17.6,48,30.35,10.0,South,3.5,-,N/A,,Clear,170,2012-11-22 13:35:00
6:55 AM,35.6,17.6,48,30.36,10.0,NNE,9.2,-,N/A,,Clear,20,2012-11-22 13:55:00
7:15 AM,35.6,17.6,48,30.36,10.0,NNE,10.4,-,N/A,,Clear,20,2012-11-22 14:15:00
7:35 AM,35.6,19.4,52,30.37,10.0,North,10.4,-,N/A,,Clear,10,2012-11-22 14:35:00
7:55 AM,35.6,19.4,52,30.38,10.0,NNE,10.4,-,N/A,,Clear,20,2012-11-22 14:55:00
8:15 AM,37.4,19.4,48,30.39,10.0,NNE,8.1,-,N/A,,Clear,20,2012-11-22 15:15:00
8:35 AM,37.4,19.4,48,30.40,10.0,NNE,9.2,-,N/A,,Clear,20,2012-11-22 15:35:00
8:55 AM,39.2,19.4,45,30.41,10.0,North,9.2,-,N/A,,Clear,10,2012-11-22 15:55:00
9:15 AM,39.2,19.4,45,30.42,10.0,NNE,5.8,-,N/A,,Clear,30,2012-11-22 16:15:00
9:35 AM,39.2,19.4,45,30.42,10.0,NE,9.2,-,N/A,,Clear,40,2012-11-22 16:35:00
9:55 AM,41.0,19.4,42,30.42,10.0,NE,11.5,-,N/A,,Clear,40,2012-11-22 16:55:00
10:15 AM,41.0,19.4,42,30.43,10.0,NNE,11.5,-,N/A,,Clear,30,2012-11-22 17:15:00
10:35 AM,42.8,19.4,39,30.43,10.0,North,8.1,-,N/A,,Clear,10,2012-11-22 17:35:00
10:55 AM,42.8,19.4,39,30.44,10.0,ENE,5.8,-,N/A,,Clear,60,2012-11-22 17:55:00
11:15 AM,42.8,19.4,39,30.44,10.0,NE,4.6,-,N/A,,Clear,50,2012-11-22 18:15:00
11:55 AM,44.6,19.4,37,30.43,10.0,East,5.8,-,N/A,,Clear,100,2012-11-22 18:55:00
12:15 PM,44.6,19.4,37,30.44,10.0,SE,9.2,-,N/A,,Clear,130,2012-11-22 19:15:00
12:35 PM,44.6,19.4,37,30.44,10.0,SE,8.1,-,N/A,,Clear,130,2012-11-22 19:35:00
12:55 PM,44.6,19.4,37,30.43,10.0,ESE,8.1,-,N/A,,Clear,120,2012-11-22 19:55:00
1:15 PM,44.6,19.4,37,30.42,10.0,SE,10.4,-,N/A,,Clear,140,2012-11-22 20:15:00
1:35 PM,44.6,19.4,37,30.42,10.0,SSE,8.1,-,N/A,,Clear,150,2012-11-22 20:35:00
1:55 PM,44.6,19.4,37,30.42,10.0,ESE,4.6,-,N/A,,Clear,110,2012-11-22 20:55:00
2:15 PM,44.6,19.4,37,30.42,10.0,East,6.9,-,N/A,,Clear,100,2012-11-22 21:15:00
2:35 PM,44.6,19.4,37,30.42,10.0,ESE,5.8,-,N/A,,Clear,110,2012-11-22 21:35:00
2:55 PM,44.6,19.4,37,30.43,10.0,SSE,3.5,-,N/A,,Clear,150,2012-11-22 21:55:00
3:15 PM,44.6,19.4,37,30.44,10.0,East,5.8,-,N/A,,Clear,100,2012-11-22 22:15:00
3:35 PM,44.6,19.4,37,30.44,10.0,SE,4.6,-,N/A,,Clear,140,2012-11-22 22:35:00
3:55 PM,44.6,19.4,37,30.44,10.0,SE,4.6,-,N/A,,Clear,130,2012-11-22 22:55:00
4:15 PM,42.8,19.4,39,30.45,10.0,East,4.6,-,N/A,,Clear,90,2012-11-22 23:15:00
4:35 PM,42.8,19.4,39,30.45,10.0,ESE,5.8,-,N/A,,Clear,110,2012-11-22 23:35:00
4:55 PM,42.8,19.4,39,30.46,10.0,ESE,4.6,-,N/A,,Clear,120,2012-11-22 23:55:00
5:15 PM,41.0,19.4,42,30.45,10.0,Calm,Calm,-,N/A,,Clear,0,2012-11-23 00:15:00
5:35 PM,39.2,19.4,45,30.46,10.0,Calm,Calm,-,N/A,,Clear,0,2012-11-23 00:35:00
6:15 PM,39.2,19.4,45,30.47,10.0,NE,3.5,-,N/A,,Clear,40,2012-11-23 01:15:00
6:35 PM,39.2,19.4,45,30.47,10.0,Calm,Calm,-,N/A,,Clear,0,2012-11-23 01:35:00
6:55 PM,37.4,19.4,48,30.47,10.0,WSW,5.8,-,N/A,,Clear,250,2012-11-23 01:55:00
7:15 PM,33.8,17.6,52,30.48,10.0,WNW,4.6,-,N/A,,Clear,290,2012-11-23 02:15:00
7:55 PM,32.0,17.6,55,30.48,10.0,WNW,4.6,-,N/A,,Clear,300,2012-11-23 02:55:00
8:15 PM,35.6,19.4,52,30.49,10.0,West,5.8,-,N/A,,Clear,270,2012-11-23 03:15:00
8:35 PM,33.8,19.4,56,30.49,10.0,West,5.8,-,N/A,,Clear,280,2012-11-23 03:35:00
8:55 PM,33.8,17.6,52,30.49,10.0,WNW,4.6,-,N/A,,Clear,290,2012-11-23 03:55:00
9:15 PM,32.0,17.6,55,30.49,10.0,Calm,Calm,-,N/A,,Clear,0,2012-11-23 04:15:00
9:55 PM,30.2,17.6,60,30.50,10.0,East,3.5,-,N/A,,Clear,90,2012-11-23 04:55:00
10:15 PM,30.2,17.6,60,30.50,10.0,Calm,Calm,-,N/A,,Clear,0,2012-11-23 05:15:00
10:55 PM,30.2,17.6,60,30.49,10.0,Calm,Calm,-,N/A,,Clear,0,2012-11-23 05:55:00
11:15 PM,28.4,17.6,64,30.50,10.0,Calm,Calm,-,N/A,,Clear,0,2012-11-23 06:15:00
11:55 PM,28.4,17.6,64,30.51,10.0,Calm,Calm,-,N/A,,Clear,0,2012-11-23 06:55:00